Погода в Облепихе

Россия / Иркутская область     55°39′59″N   98°27′08″E
темп.,
°C
ветер,
м/с
пор.,
м/с
влажн.,
%
обл.,
%
осадки,
мм/ч
давл.,
гПа
погр.,
м
11 мая, вт
вт1123:00+5з25909 0.1 102083
02:00+3з11925 0.1 102111
05:00+2зюз11945 0.0 102111
08:00+6з13825 0.0 1020197
11:00+13сз12565 0.0 1018732
14:00+16с2237100 0.0 10162545
17:00+16сз233071 0.0 10152687
20:00+13с364899 0.0 1015293
12 мая, ср
ср1223:00+7св498171 0.0 1018443
02:00+5св368599 0.1 1019492
05:00+3ссв248610 0.0 1019218
08:00+4св35630 0.0 1020566
11:00+8св33415 0.0 10191553
14:00+10ссв34325 0.0 10182120
17:00+11ссв33289 0.0 10172372
20:00+9ссв244025 0.0 1017135
13 мая, чт
чт1323:00+4св11565 0.0 101910
02:00+2всв11605 0.0 101910
05:000св00655 0.0 101910
08:00+5всв12470 0.0 1020236
11:00+10всв23322 0.0 10191772
14:00+12всв23280 0.0 10172084
17:00+13в23260 0.0 10162110
20:00+11вюв24390 0.0 1016146
14 мая, пт
пт1423:00+4вюв23550 0.0 101759
02:00+2вюв22600 0.0 101723
05:000вюв22664 0.0 101524
08:00+5юв374987 0.0 1014323
11:00+12ю343497 0.0 1012761
14:00+17з362555 0.0 10092416
17:00+18зсз4625100 0.0 10082431
20:00+14сз595190 0.0 1009757
15 мая, сб
сб1523:00+8з3894100 4.6 1014886
02:00+7зсз5109173 5.6 1015798
05:00+5з51287100 0.1 10171277
08:00+4з51275100 0.2 1018888
11:00+6зюз61578100 0.2 10151332
14:00+6з71992100 2.2 10131325
17:00+7з71690100 1.2 10131437
20:00+8з71682100 1.2 10141505